CZ-2C R/B (37731 NORAD) Tracking and Keplerian Element Data

This shows tracking and keplerian element data for the satellite.

Feedback or suggestion? Click here.




ElementValue
Catalog37731
NameCZ-2C R/B
Epoch Orbit67378
Epoch Day12.92773174
Epoch Year2024
RAAN342.7886
Inclination97.7432
Eccentricity0.005787
Argument of Perigee28.4281
Mean Anonmoly36.108
Mean Motion14.76877579
Decay Rate2.771E-05
L11 37731U 11030B 24012.92773174 .00002771 00000+0 39066-3 0 9998
L22 37731 97.7432 342.7886 0057870 28.4281 36.1080 14.76877579673785



Live tracking and technical data element details for CZ-2C R/B (NORAD 37731). CZ-2C R/B can be tracked NOW for your location showing map with azimuth and elevation plus other details from your city location.







IsCatalogInMostPopularTable: catalog: 37731, numindb: 4
Update: records affected: 1



GetName: 37731 CZ-2C R/B

Hit Count: updated at: Fri, 19 Apr 2024 11:33:09 GMT